Simultaneous Nadir Overpasses (SNOs) Predictions

Prediction of SNOs between GOES-14 and AQUA Satellite Orbit:

Table of predicted SNOs for the next 14.0 days since TLE Epoch: 2/24/2024
Index Date Time (GOES-14) GOES-14 Lat,Lon AQUA Lat,Lon Distance(km) Time Diff (sec)
1 02/25/2024 09:14:36 0.07,-108.37 0.05,-108.27 11.60 80
2 02/27/2024 08:58:55 0.07,-108.36 -0.75,-104.43 446.17 80
3 02/27/2024 21:19:26 -0.07,-108.37 -0.26,-109.40 117.12 80
4 02/29/2024 21:06:24 -0.07,-108.36 0.53,-105.56 317.84 80
5 03/01/2024 09:26:43 0.08,-108.35 0.56,-110.48 243.44 80
6 03/03/2024 09:08:21 0.08,-108.33 -0.30,-106.65 191.20 80
7 03/03/2024 21:28:50 -0.08,-108.33 -0.80,-111.60 372.58 80
8 03/05/2024 21:15:47 -0.09,-108.31 0.06,-107.77 62.23 80
9 03/06/2024 09:36:07 0.09,-108.30 1.01,-112.68 498.64 80
10 03/07/2024 21:00:02 -0.09,-108.28 0.84,-103.91 497.14 80
11 03/08/2024 09:20:22 0.10,-108.27 0.22,-108.83 63.70 80
